Weather Roundup
Issued by NWS

Home | Current Version | Previous Version | Text Only | Print | Product List | Glossary On
Versions: 1 2 3 4 5 6 7 8 9 10 11 12 13 14 15 16 17 18 19 20 21 22 23 24 25 26 27 28 29 30 31 32 33 34 35 36 37 38 39 40 41 42 43 44 45 46 47 48 49 50
000
NZUS93 KARX 200810
HRRWXR

CURRENT HOURLY OBSERVATIONS ACROSS
MUCH OF THE UPPER MISSISSIPPI VALLEY
NATIONAL WEATHER SERVICE LA CROSSE WI
200 AM CST SAT DEC 20 2014


...SOUTHEAST MINNESOTA...


CITY           SKY/WX    TMP DP  RH WIND       PRES   REMARKS
ROCHESTER      CLOUDY    27  23  85 S9        30.17S WCI  18
ROCHESTER/MAYO CLOUDY    28  22  78 SE6       30.17S WCI  22
WINONA         CLOUDY    30  23  74 SE3       30.22S
AUSTIN         CLOUDY    27  25  93 S7        30.17S FOG     WCI  19
ALBERT LEA     CLOUDY    28  28 100 S7        30.15S FOG     WCI  21
DODGE CENTER   CLOUDY    28  27  93 S10       30.16R FOG     WCI  19
PRESTON        CLOUDY    26  23  87 S6        30.19R WCI  20
OWATONNA       MOCLDY    28  27  93 S12       30.16S FOG     WCI  18
FARIBAULT      CLOUDY    28  27  93 S7        30.16S FOG     WCI  21
$$

...ELSEWHERE IN MINNESOTA...


CITY           SKY/WX    TMP DP  RH WIND       PRES   REMARKS
MINNEAPOLIS    CLOUDY    29  25  85 SE7       30.17R FOG     WCI  22
INTNL FALLS    CLOUDY    24  22  91 SE5       30.06S WCI  18
DULUTH         CLOUDY    25  22  88 SE6       30.11S FOG     WCI  18
RED WING       CLOUDY    30  23  74 S3        30.18S
REDWOOD FALLS  CLOUDY    32  28  85 S14       30.10S FOG     WCI  22
MANKATO        CLOUDY    30  27  86 S8        30.14S WCI  23
WORTHINGTON    CLOUDY    28  28 100 S9        30.08S WCI  20
FAIRMONT       CLOUDY    30  27  86 S10       30.12S WCI  21
$$

...SOUTHWEST WISCONSIN...


CITY           SKY/WX    TMP DP  RH WIND       PRES   REMARKS
LA CROSSE      CLOUDY    30  22  72 S7        30.23S WCI  23
PRAIRIE DU CHI CLOUDY    29  23  78 CALM      30.25S
BOSCOBEL       CLOUDY    29  22  75 CALM      30.26S
LONE ROCK      CLOUDY    31  22  69 SE3       30.26S
PLATTEVILLE    CLOUDY    27  24  89 CALM      30.25S
FORT MC COY    CLOUDY    28  22  77 CALM      30.24S
CAMP DOUGLAS   CLOUDY    25  25 100 SE5       30.24S WCI  19
VIROQUA        CLOUDY    27  23  87 S7        30.21R WCI  19
WIS DELLS      CLOUDY    25  22  88 S3        30.24S
$$

...ELSEWHERE IN WISCONSIN...


CITY           SKY/WX    TMP DP  RH WIND       PRES   REMARKS
MILWAUKEE      CLOUDY    28  19  69 W5        30.27R WCI  23
MADISON        CLOUDY    26  21  81 S5        30.26R WCI  20
GREEN BAY      MOCLDY    21  19  92 CALM      30.27S
EAU CLAIRE     CLOUDY    28  21  75 S7        30.20S WCI  21
BLACK RVR FLS  CLOUDY    28  22  79 CALM      30.22S
MEDFORD        CLOUDY    23  21  93 S6        30.19S WCI  15
WAUSAU         CLOUDY    24  21  88 S6        30.21S WCI  17
WIS RAPIDS     CLOUDY    23  19  85 S3        30.25S
MARSHFIELD     CLOUDY    24  21  88 S7        30.21S WCI  16
RICE LAKE      CLOUDY    27  23  84 SE6       30.19S WCI  21
$$

...NORTHEAST IOWA...


CITY           SKY/WX    TMP DP  RH WIND       PRES   REMARKS
DECORAH        CLOUDY    27  25  93 SE6       30.20S WCI  20
MASON CITY     CLOUDY    28  27  96 S8        30.18S FOG     WCI  20
CHARLES CITY   CLOUDY    28  27  93 S6        30.20R FOG     WCI  22
OELWEIN        CLOUDY    28  25  86 SE8       30.21S WCI  20
$$

...ELSEWHERE IN IOWA...


CITY           SKY/WX    TMP DP  RH WIND       PRES   REMARKS
DES MOINES     LGT SNOW  32  30  92 S5        30.18S FOG     WCI  27
IOWA CITY      CLOUDY    30  24  78 SE5       30.25F WCI  25
FORT DODGE     CLOUDY    28  27  93 S9        30.16S WCI  20
$$

...NORTHERN ILLINOIS...


CITY           SKY/WX    TMP DP  RH WIND       PRES   REMARKS
CHICAGO-OHARE  CLOUDY    29  23  78 CALM      30.27R
CHICAGO-MIDWAY CLOUDY    32  25  75 SW6       30.28R WCI  26
MOLINE         CLOUDY    29  24  82 CALM      30.26S
ROCKFORD       CLOUDY    25  22  88 S3        30.29S
PEORIA         CLOUDY    28  22  78 CALM      30.27S HAZE
$$

NOTE: "FAIR" INDICATES FEW OR NO CLOUDS BELOW 12,000 FEET WITH NO
SIGNIFICANT WEATHER AND/OR OBSTRUCTIONS TO VISIBILITY. WIND
SPEEDS ARE IN MILES-PER-HOUR.



USA.gov is the U.S. government's official web portal to all federal, state and local government web resources and services.